Terminal Aerodrome Forecast
Issued by NWS

Home | Current Version | Previous Version | Text Only | Print | Product List | Glossary On
Versions: 1 2 3 4 5 6 7 8 9 10 11 12 13 14 15 16 17 18 19 20 21 22 23 24 25 26 27 28 29 30 31 32 33 34 35 36 37 38 39 40 41 42 43 44 45 46 47 48 49 50
000
FTUS41 KRNK 211425 AAC
TAFBCB
TAF AMD
KBCB 211425Z 2114/2212 00000KT P6SM SCT002 BKN035
     FM211530 28004KT P6SM SCT040
     FM211800 28010G18KT P6SM VCSH BKN050
     FM220000 29006KT P6SM SCT250=

USA.gov is the U.S. government's official web portal to all federal, state and local government web resources and services.